Regional Weather Roundup
Issued by NWS Cleveland, OH

Home | Current Version | Previous Version | Graphics & Text | Print | Product List | Glossary On
Versions: 1 2 3 4 5 6 7 8 9 10 11 12 13 14 15 16 17 18 19 20 21 22 23 24 25 26 27 28 29 30 31 32 33 34 35 36 37 38 39 40 41 42 43 44 45 46 47 48 49 50
000
ASUS41 KCLE 250110
RWRCLE
OHIO REGIONAL WEATHER ROUNDUP
NATIONAL WEATHER SERVICE CLEVELAND, OH
800 PM EST FRI FEB 24 2017

NOTE: "FAIR" INDICATES FEW OR NO CLOUDS BELOW 12,000 FEET WITH NO
SIGNIFICANT WEATHER AND/OR OBSTRUCTIONS TO VISIBILITY.

OHZ001>008-015>018-024>027-034-035-043-044-250200-
   NORTHWEST OHIO

CITY           SKY/WX    TMP DP  RH WIND       PRES   REMARKS
DEFIANCE       PTCLDY    60  52  74 S8        29.46S
FINDLAY        LGT RAIN  62  52  69 S20       29.47F
TOLEDO EXPRESS MOCLDY    61  53  75 S6        29.46F
TOLEDO EXEC    CLOUDY    63  55  75 S16       29.48F
LIMA           CLOUDY    62  56  80 S17       29.48F
$$

OHZ009>014-019>023-028>033-038-089-250200-
   NORTHEAST OHIO

CITY           SKY/WX    TMP DP  RH WIND       PRES   REMARKS
CLE-HOPKINS    MOCLDY    68  49  50 S9        29.55F
CLE-LAKEFRONT  CLOUDY    72  49  44 S12       29.52F
CUY CO. ARPT   PTCLDY    72  52  49 S12       29.57F
LORAIN-ELYRIA  CLOUDY    67  50  54 S9        29.53F
ASHTABULA      CLOUDY    67  49  52 S10       29.58F
AKRON-CANTON   CLOUDY    64  48  56 S10       29.59F
WOOSTER        CLOUDY    62  51  67 SE6       29.57F
MANSFIELD      CLOUDY    67  51  56 SE10      29.55F
YOUNGSTOWN     CLOUDY    64  48  56 S5        29.61F
$$

OHZ042-051>053-060>062-070>072-077>081-250200-
  SOUTHWEST OHIO

CITY           SKY/WX    TMP DP  RH WIND       PRES   REMARKS
CINC-COVINGTON TSTM      62  56  80 W21G40    29.57R
CINC-LUNKEN    LGT RAIN  69  56  62 S12       29.54R
HAMILTON       TSTM      62  58  86 W10       29.56R FOG
DAYTON         TSTM      57  54  89 S12       29.55F
WRIGHT-PAT AFB TSTM      59  59 100 W12       29.53R
DAYTON GENERAL TSTM      59  55  87 W14G22    29.54R FOG
WILMINGTON     CLOUDY    68  53  58 S13       29.54F
$$

OHZ036-037-039>041-045>050-054>059-063>069-073>076-082>088-250200-
  CENTRAL AND SOUTHEAST OHIO

CITY           SKY/WX    TMP DP  RH WIND       PRES   REMARKS
COLUMBUS       CLOUDY    72  50  45 S7        29.54F
OSU AIRPORT    MOCLDY    69  52  54 S6        29.54F
BOLTON FIELD   CLOUDY    68  52  56 S13G20    29.56S
RICKENBACK AFB CLOUDY    66  50  56 S6        29.55F
NEWARK         CLOUDY    65  49  56 W5        29.56S
MARION         CLOUDY    69  51  52 S15       29.53F
LANCASTER      MOCLDY    64  49  57 CALM      29.57S
ZANESVILLE     CLEAR     66  47  50 CALM      29.58F
NEW PHILLY     NOT AVBL
$$




USA.gov is the U.S. government's official web portal to all federal, state and local government web resources and services.